Sheringham Point, British Columbia

5:43 AM PDT on March 24, 2017 (GMT -0700)
Sheringham Point

Weather History for CWSP - March, 2014

Change the Weather History Date:

Thursday, March 6, 2014

  Actual Average Record
Temperature  
Mean Temperature 48 °F -  
Max Temperature 53 °F - - ()
Min Temperature 44 °F - - ()
Degree Days  
Heating Degree Days 16    
Moisture  
Dew Point 46 °F    
Average Humidity 90    
Maximum Humidity 96    
Minimum Humidity 81    
Precipitation  
Precipitation 0.63 in - - ()
Sea Level Pressure  
Sea Level Pressure 29.62 in    
Wind  
Wind Speed 10 mph ()    
Max Wind Speed 26 mph    
Max Gust Speed 21 mph    
T = Trace of Precipitation, MM = Missing Value Source: Averaged Metar Reports

Daily Weather History Graph

Daily Weather History Graph

Search for Another Location

Airport or City:

Trip Planner

Search our weather history database for the weather conditions in past years. The results will help you decide how hot, cold, wet, or windy it might be!

Date:

Astronomy

Mar. 06, 2014 Rise Set
Actual Time 6:46 AM PST 6:07 PM PST
Civil Twilight 6:15 AM PST 6:38 PM PST
Nautical Twilight 5:39 AM PST 7:15 PM PST
Astronomical Twilight 5:03 AM PST 7:51 PM PST
Moon 9:31 AM PST (3/6) No Moon Set
Length of Visible Light 12h 23m
Length of Day
11h 20m
Waxing Crescent, 33% of the Moon is Illuminated
Mar 6
Waxing Crescent
Mar 8
First Quarter
Mar 16
Full
Mar 23
Last Quarter
Mar 30
New

Hourly Weather History & Observations

Time (PST) Temp. Dew Point Humidity Pressure Visibility Wind Dir Wind Speed Gust Speed Precip Events Conditions
12:00 AM 50.4 °F 48.4 °F 93% 29.38 in - East 4.6 mph - 0.11 in   Unknown
1:00 AM 49.8 °F 48.2 °F 94% 29.39 in - NE 3.5 mph - 0.18 in   Unknown
2:00 AM 50.4 °F 46.2 °F 86% 29.40 in - WNW 18.4 mph - 0.03 in   Unknown
3:00 AM 52.3 °F 46.8 °F 81% 29.40 in - WNW 11.5 mph 20.7 mph N/A   Unknown
4:00 AM 51 °F 47 °F 83% 29.39 in - NW 8.1 mph - -  
4:00 AM 51.1 °F 45.5 °F 81% 29.39 in - NW 8.1 mph - 0.02 in   Unknown
5:00 AM 48.0 °F 45.9 °F 92% 29.40 in - East 4.6 mph - 0.20 in   Unknown
6:00 AM 49.3 °F 46.8 °F 91% 29.39 in - ENE 8.1 mph - 0.10 in   Unknown
7:00 AM 48.2 °F 46.0 °F 92% 29.42 in - SE 4.6 mph - 0.13 in   Unknown
8:00 AM 48.4 °F 46.2 °F 92% 29.42 in - East 5.8 mph - 0.12 in   Unknown
9:00 AM 47.3 °F 46.2 °F 96% 29.44 in - ENE 8.1 mph - 0.03 in   Unknown
10:00 AM 49 °F 47 °F 89% 29.47 in - ENE 4.6 mph - -  
10:00 AM 49.5 °F 46.8 °F 90% 29.47 in - ENE 4.6 mph - 0.05 in   Unknown
11:00 AM 49.8 °F 46.4 °F 88% 29.51 in - ENE 3.5 mph - 0.02 in   Unknown
12:00 PM 47.3 °F 45.5 °F 93% 29.57 in - West 16.1 mph - 0.03 in   Unknown
1:00 PM 46.6 °F 45.3 °F 95% 29.63 in - West 13.8 mph - 0.08 in   Unknown
2:00 PM 47.7 °F 45.0 °F 90% 29.66 in - West 24.2 mph - 0.05 in   Unknown
3:00 PM 48.2 °F 44.1 °F 86% 29.70 in - West 26.5 mph - N/A   Unknown
4:00 PM 48 °F 44 °F 82% 29.74 in - WNW 24.2 mph - -  
4:00 PM 47.8 °F 44.2 °F 87% 29.74 in - WNW 24.2 mph - N/A   Unknown
5:00 PM 47.5 °F 44.4 °F 89% 29.79 in - WNW 18.4 mph - N/A   Unknown
6:00 PM 46.9 °F 45.0 °F 93% 29.83 in - WNW 15.0 mph - N/A   Unknown
7:00 PM 47.5 °F 45.1 °F 92% 29.87 in - WNW 12.7 mph - N/A   Unknown
8:00 PM 47.8 °F 45.9 °F 93% 29.91 in - WNW 11.5 mph - 0.01 in   Unknown
9:00 PM 48.0 °F 45.9 °F 92% 29.94 in - WNW 13.8 mph - N/A   Unknown
10:00 PM 47 °F 45 °F 91% 29.98 in - WNW 19.6 mph - -  
10:00 PM 46.8 °F 45.1 °F 94% 29.98 in - WNW 19.6 mph - N/A   Unknown
11:00 PM 46.9 °F 45.3 °F 94% 30.01 in - WNW 15.0 mph 20.7 mph 0.02 in   Unknown